Regional Weather Roundup
Issued by NWS

Home | Current Version | Previous Version | Text Only | Print | Product List | Glossary Off
Versions: 1 2 3 4 5 6 7 8 9 10 11 12 13 14 15 16 17 18 19 20 21 22 23 24 25 26 27 28 29 30 31 32 33 34 35 36 37 38 39 40 41 42 43 44 45 46 47 48 49 50

000
ASUS43 KFSD 100402
RWRSD

WEATHER ROUNDUP FOR SOUTH DAKOTA
NATIONAL WEATHER SERVICE SIOUX FALLS SD
1000 PM CST TUE FEB 09 2016

NOTE: "FAIR" INDICATES FEW OR NO CLOUDS BELOW 12,000 FEET WITH NO
SIGNIFICANT WEATHER AND/OR OBSTRUCTIONS TO VISIBILITY.


SDZ001>005-009-010-012>017-100500-
NORTHWEST AND NORTH CENTRAL SOUTH DAKOTA

CITY           SKY/WX    TMP DP  RH WIND       PRES   REMARKS
BUFFALO          N/A     32  26  78 W9        29.94F WCI  24
FAITH            N/A     32  21  64 S8        30.02F WCI  25
MOBRIDGE       CLOUDY    33  23  66 E7        30.03F WCI  27
$$

SDZ012>016-024>037-041>051-057-063-072>074-100500-
SOUTHWEST AND SOUTH CENTRAL SOUTH DAKOTA

CITY           SKY/WX    TMP DP  RH WIND       PRES   REMARKS
RAPID CTY ARPT CLEAR     31  26  82 CALM      30.05F
PIERRE         CLOUDY    31  24  75 SE5       30.06F WCI  26
CUSTER         CLEAR     39  23  52 W15       30.09F
ELLSWORTH AFB  CLEAR     36  27  71 W3        30.04F
PHILIP         CLEAR     32  26  78 CALM      30.06F
PINE RIDGE     CLEAR     30  25  81 CALM      30.08F
WINNER         CLOUDY    34  25  69 W5        30.08F WCI  30
$$

SDZ004>011-016>023-039-040-100500-
NORTHEAST SOUTH DAKOTA

CITY           SKY/WX    TMP DP  RH WIND       PRES   REMARKS
ABERDEEN       CLOUDY    21  13  71 E12       30.13F WCI   9
WATERTOWN      CLOUDY    17   8  67 E7        30.11S WCI   8
BROOKINGS      CLOUDY    19  11  70 E3        30.12F
SISSETON         N/A     13   6  74 NE7       30.18F WCI   3
$$

SDZ017-020-022-023-036>040-048>070-100500-
SOUTHEAST SOUTH DAKOTA

CITY           SKY/WX    TMP DP  RH WIND       PRES   REMARKS
SIOUX FALLS    CLOUDY    21  12  68 SE3       30.14F
HURON          CLOUDY    26  17  68 S8        30.12F WCI  18
MITCHELL       CLOUDY    28  17  63 S8        30.13F WCI  20
YANKTON        CLOUDY    23  16  74 S7        30.15F WCI  15
$$

ABBREVIATIONS USED IN REMARKS
   TC - TEMPERATURE IN CELSIUS
  WCI - WIND CHILL INDEX
   HX - HEAT INDEX
  VSB - VISIBILITY




USA.gov is the U.S. government's official web portal to all federal, state and local government web resources and services.